Fort Polk, LA

3:01 PM CDT on August 23, 2017 (GMT -0500)
Fort Polk

Weather History for KAQV - November, 2012

Change the Weather History Date:

Thursday, November 1, 2012

  Actual Average (KPOE) Record (KPOE)
Temperature  
Mean Temperature 66 °F -  
Max Temperature 84 °F 71 °F 85 °F (2016)
Min Temperature 48 °F 51 °F 38 °F (2014)
Cooling Degree Days 1    
Growing Degree Days 16 (Base 50)    
Moisture  
Dew Point 52 °F    
Average Humidity 76    
Maximum Humidity 100    
Minimum Humidity 30    
Precipitation  
Precipitation 0.01 in - - ()
Sea Level Pressure  
Sea Level Pressure 30.00 in    
Wind  
Wind Speed 0 mph (NNE)    
Max Wind Speed 6 mph    
Max Gust Speed -    
Visibility 8 miles    
Events      
Averages and records for this station are not official NWS values.
T = Trace of Precipitation, MM = Missing Value Source: NWS Daily Summary

Daily Weather History Graph

Daily Weather History Graph

Search for Another Location

Airport or City:

Trip Planner

Search our weather history database for the weather conditions in past years. The results will help you decide how hot, cold, wet, or windy it might be!

Date:

Astronomy

Nov. 01, 2012 Rise Set
Actual Time 7:29 AM CDT 6:23 PM CDT
Civil Twilight 7:04 AM CDT 6:48 PM CDT
Nautical Twilight 6:35 AM CDT 7:17 PM CDT
Astronomical Twilight 6:07 AM CDT 7:45 PM CDT
Moon 8:29 PM CDT (11/1) 9:54 AM CDT (11/1)
Length of Visible Light 11h 44m
Length of Day
10h 54m
Waning Gibbous, 93% of the Moon is Illuminated
Nov 1
Waning Gibbous
Nov 6
Last Quarter
Nov 13
New
Nov 20
First Quarter
Nov 28
Full

Hourly Weather History & Observations

Time (CDT) Temp. Heat Index Dew Point Humidity Pressure Visibility Wind Dir Wind Speed Gust Speed Precip Events Conditions
12:56 AM 52.0 °F - 50.0 °F 93% 30.00 in 4.0 mi Calm Calm - N/A   Clear
1:56 AM 50.0 °F - 48.9 °F 96% 30.01 in 5.0 mi Calm Calm - N/A   Clear
2:56 AM 50.0 °F - 48.0 °F 93% 30.02 in 7.0 mi Calm Calm - N/A   Clear
3:56 AM 50.0 °F - 48.0 °F 93% 30.01 in - Calm Calm - N/A   Clear
4:56 AM 48.0 °F - 46.9 °F 96% 30.01 in - Calm Calm - N/A   Clear
5:30 AM 48.2 °F - 48.2 °F 100% 30.01 in - Calm Calm - N/A   Partly Cloudy
5:56 AM 48.0 °F - 46.9 °F 96% 30.01 in - Calm Calm - N/A   Partly Cloudy
6:23 AM 48.2 °F - 46.4 °F 93% 30.01 in - Calm Calm - N/A   Mostly Cloudy
6:56 AM 48.0 °F - 46.0 °F 93% 30.01 in - Calm Calm - 0.01 in   Mostly Cloudy
7:25 AM 48.2 °F - 46.4 °F 93% 30.02 in - Calm Calm - N/A   Scattered Clouds
7:56 AM 50.0 °F - 48.0 °F 93% 30.03 in - Calm Calm - N/A   Clear
8:56 AM 61.0 °F - 57.9 °F 90% 30.05 in - Calm Calm - N/A   Clear
9:56 AM 68.0 °F - 57.9 °F 70% 30.07 in - Calm Calm - N/A   Clear
10:56 AM 73.0 °F - 57.9 °F 59% 30.07 in - Calm Calm - N/A   Clear
11:56 AM 77.0 °F - 57.0 °F 50% 30.05 in 10.0 mi Calm Calm - N/A   Clear
12:56 PM 80.1 °F 80.1 °F 55.0 °F 42% 30.02 in 10.0 mi Calm Calm - N/A   Clear
1:56 PM 82.9 °F 81.9 °F 54.0 °F 37% 29.99 in 10.0 mi NNE 5.8 mph - N/A   Clear
2:56 PM 82.9 °F - 48.9 °F 31% 29.97 in 10.0 mi Calm Calm - N/A   Clear
3:56 PM 84.0 °F - 51.1 °F 32% 29.96 in 10.0 mi Variable 4.6 mph - N/A   Clear
4:56 PM 82.0 °F - 48.0 °F 30% 29.96 in 10.0 mi Variable 3.5 mph - N/A   Clear
5:56 PM 75.9 °F - 55.0 °F 48% 29.96 in 5.0 mi Calm Calm - N/A   Haze
6:56 PM 66.0 °F - 55.9 °F 70% 29.97 in 8.0 mi Calm Calm - N/A   Clear
7:56 PM 62.1 °F - 55.9 °F 80% 29.98 in 9.0 mi Calm Calm - N/A   Clear
8:56 PM 59.0 °F - 54.0 °F 83% 29.99 in 10.0 mi Calm Calm - N/A   Clear
9:39 PM 57.2 °F - 53.6 °F 88% 29.99 in 2.5 mi Calm Calm - N/A   Clear
9:51 PM 57.2 °F - 53.6 °F 88% 29.99 in 4.0 mi Calm Calm - N/A   Clear
9:56 PM 57.0 °F - 54.0 °F 89% 29.99 in 6.0 mi Calm Calm - N/A   Clear
10:56 PM 57.9 °F - 54.0 °F 87% 29.99 in 10.0 mi Calm Calm - N/A   Clear
11:56 PM 64.9 °F - 59.0 °F 81% 29.98 in 10.0 mi Variable 4.6 mph - N/A   Clear